sat.trackr.live / text

‹ back to catalog

INMARSAT 3-F2

NORAD 24307 · 1996-053A

PAYLOAD ACTIVE UNKNOWN

§ Identity

Operator
Country
IM
Launch date
1996-09-06
Launch site
TYMSC
Launch vehicle
Mass (kg)
RCS (m²)
830.04

Purposes: comms

External: N2YO · Heavens-Above · Gunter

§ Orbital elements

Epoch: 2026-05-24T13:37:38.563680Z

Period
1,439.95 min
Inclination
9.8051°
Eccentricity
0.0006763
Mean motion
1.00003680 rev/d
Perigee alt
35,833.4 km
Apogee alt
35,890.5 km
Semi-major
42,240.1 km
B*
0.0000e+0
RAAN
54.1761°
Arg perigee
9.9122°
Mean anomaly
194.6495°
Rev number
10,868

§ Raw data

INMARSAT 3-F21 24307U 96053A   26144.56780745 -.00000072  00000+0  00000+0 0  99962 24307   9.8051  54.1761 0006763   9.9122 194.6495  1.00003680108689

JSON: /api/v1/satellites/24307 · /tle

For live sub-satellite position, see the globe view (requires WebGL).

§ Visibility from observer

Set your observer location to see the next 7 days of passes ≥ 10°. The values pass through the URL so the page stays shareable.

No JS? Fill the form by hand. The geolocation button needs JavaScript.